User: anonymous   Login
Location: Unspecified
(0.0000°N, 0.0000°E)
Time: 14:04:13
(UTC+02:00)
Language:

Meteor 1-31 Rocket - Orbit

View from above orbital plane
View from above orbital plane
View from above satellite
View from above satellite

Ground track
Ground track

The orbit data is extracted from the following two-line orbital elements,

1 12586U 81065B   16270.22066933  .00000983  00000-0  64748-4 0  9992
2 12586  97.4679 252.0667 0020123  31.7846 328.4594 15.09623549916679
Epoch (UTC): 26 September 2016 05:17:45
Eccentricity: 0.0020123
inclination: 97.4679°
perigee height: 523 km
apogee height: 551 km
right ascension of ascending node: 252.0667°
argument of perigee: 31.7846°
revolutions per day: 15.09623549
mean anomaly at epoch: 328.4594°
orbit number at epoch: 91667

The dashed part of the orbit path shows where the satellite is in the earth's shadow,  

DLR